Weather Roundup
Issued by NWS Chicago, IL

Home | Current Version | Previous Version | Graphics & Text | Print | Product List | Glossary On
Versions: 1 2 3 4 5 6 7 8 9 10 11 12 13 14 15 16 17 18 19 20 21 22 23 24 25 26 27 28 29 30 31 32 33 34 35 36 37 38 39 40 41 42 43 44 45 46 47 48 49 50
000
NZUS59 KLOT 191208
HRRLOT

CHICAGO AREA WEATHER ROUNDUP
NATIONAL WEATHER SERVICE CHICAGO/ROMEOVILLE IL
600 AM CST SUN NOV 19 2017

NOTE: "FAIR" INDICATES FEW OR NO CLOUDS BELOW 12,000 FEET WITH NO
SIGNIFICANT WEATHER AND/OR OBSTRUCTIONS TO VISIBILITY.

* THESE STATIONS ARE NOT UNDER NWS QUALITY CONTROL. THEY ALSO MAY NOT
  REPORT WEATHER SUCH AS PRECIPITATION OR FOG.

ILZ005-006-012>014-019>023-191300-
NORTHEAST ILLINOIS

CITY           SKY/WX    TMP DP  RH WIND       PRES   REMARKS
OHARE          CLOUDY    31  20  63 W12G20    29.94R WCI  22
6HR MIN TEMP:  31; 6HR MAX TEMP:  38;

MIDWAY         MOCLDY    31  21  66 NW14      29.97R WCI  21
6HR MIN TEMP:  31; 6HR MAX TEMP:  38;

AURORA         CLOUDY    30  23  75 W15       29.98R WCI  19
6HR MIN TEMP:  29; 6HR MAX TEMP:  36;

LANSING*       CLOUDY    32  24  72 W7        29.94F WCI  25
JOLIET*        CLOUDY    31  22  68 NW9       29.99R WCI  23
WAUKEGAN       CLOUDY    30  19  63 W10G20    29.94R WCI  21
6HR MIN TEMP:  30; 6HR MAX TEMP:  36;

DUPAGE AIRPORT CLOUDY    29  20  69 NW15      29.96R WCI  18
6HR MIN TEMP:  29; 6HR MAX TEMP:  36;

WHEELING       CLOUDY    32  21  64 NW16G22   29.96R WCI  21
6HR MIN TEMP:  32; 6HR MAX TEMP:  38;

KANKAKEE*      CLOUDY    31  24  73 W12G17    29.98F WCI  22
MORRIS*        CLOUDY    30  24  78 W15       30.00R WCI  19
LEWIS AIRPORT* MOCLDY    29  22  76 NW13G20   29.99R WCI  19
NORTHERLY ISL    N/A     33  21  61 W8          N/A  WCI  26
$$

WIZ051-052-058>065-066-070>072-191300-
SOUTHEAST WISCONSIN

CITY           SKY/WX    TMP DP  RH WIND       PRES   REMARKS
MILWAUKEE      CLOUDY    31  18  58 NW13G22   29.93R WCI  21
6HR MIN TEMP:  31; 6HR MAX TEMP:  36;

KENOSHA*       CLOUDY    29  17  61 NW16G29   29.94R WCI  17
RACINE*        CLOUDY    30  19  63 W9G20     29.95R WCI  22
BURLINGTON     CLOUDY    30  23  74 NW14G21   29.95R WCI  20
WAUKESHA       CLOUDY    27  16  63 NW14G29   29.94R WCI  15
WEST BEND      CLOUDY    27  18  69 NW17      29.91S WCI  14
$$

INZ001>003-010>013-019-020-191300-
NORTHWEST INDIANA

CITY           SKY/WX    TMP DP  RH WIND       PRES   REMARKS
GARY*          CLOUDY    34  23  64 NW8       29.94S WCI  27
MICHIGAN CITY* NOT AVBL
RENSSELAER*    NOT AVBL
VALPARAISO     CLOUDY    35  23  61 NW6G17    29.93S WCI  30
$$

LMZ740>746-191300-
SOUTHERN LAKE MICHIGAN

STATION/POSITION TIME  SKY/WX   TEMP WIND        PRES    VSBY
                                AIR  DIR/SP/G
                 (UTC)          (F)  (DEG/KT/KT) (MB)    (MI)
HARRISON CRIB    1140            33  310/ 13/ 15   N/A
BURNHAM HARBOR   1200            33  280/  9/ 13   N/A
CALUMET HARBOR   NOT AVBL
BURNS HARBOR     1140            35  310/ 19/ 23 1013.9R
MICHIGAN CITY    1140            34  270/ 25/ 28   N/A
$$

ABBREVIATIONS USED IN REMARKS
   TC - TEMPERATURE IN CELSIUS
  WCI - WIND CHILL INDEX
   HX - HEAT INDEX
  VSB - VISIBILITY
$$




USA.gov is the U.S. government's official web portal to all federal, state and local government web resources and services.